Location: Sihaung
(22.8641°N, 94.0549°E)
Time: 16:04:10
(UTC+00:00)

Cosmos 1503 Rocket - Pass Details

Date: 03 March 2021
Orbit: 753 x 790 km, 74.0° (Epoch: 13 April)

Event Time Altitude Azimuth Distance (km) Brightness Sun altitude
Rises 13:35:17 0° 343° (NNW) 3,204 7.5 -25.5°
Reaches altitude 10° 13:37:39 10° 343° (NNW) 2,276 6.7 -26.0°
Maximum altitude 13:42:48 79° 257° (WSW) 767 3.9 -27.2°
Enters shadow 13:43:09 75° 210° (SSW) 780 3.9 -27.3°
